TimeAKST,TemperatureF,Dew PointF,Humidity,Sea Level PressureIn,VisibilityMPH,Wind Direction,Wind SpeedMPH,Gust SpeedMPH,PrecipitationIn,Events,Conditions,WindDirDegrees,DateUTC
3:43 AM,35.6,33.8,93,29.97,10.0,SSW,3.5,-,N/A,,Overcast,200,2013-02-04 12:43:00
3:53 AM,36.0,34.0,93,29.97,10.0,Calm,Calm,-,N/A,,Overcast,0,2013-02-04 12:53:00
4:14 AM,35.6,33.8,93,29.96,10.0,South,5.8,-,N/A,,Overcast,180,2013-02-04 13:14:00
4:34 AM,35.6,33.8,93,29.96,10.0,South,4.6,-,N/A,,Overcast,180,2013-02-04 13:34:00
4:53 AM,35.1,34.0,96,29.96,10.0,SSE,3.5,-,N/A,,Overcast,150,2013-02-04 13:53:00
5:44 AM,35.6,33.8,93,29.96,10.0,SSE,3.5,-,N/A,,Overcast,160,2013-02-04 14:44:00
5:53 AM,35.1,34.0,96,29.96,10.0,Calm,Calm,-,N/A,,Overcast,0,2013-02-04 14:53:00
6:53 AM,35.1,34.0,96,29.95,10.0,SE,3.5,-,N/A,,Mostly Cloudy,140,2013-02-04 15:53:00
7:04 AM,35.6,33.8,93,29.94,10.0,SE,3.5,-,N/A,,Overcast,140,2013-02-04 16:04:00
7:53 AM,35.1,34.0,96,29.94,10.0,SE,3.5,-,N/A,,Overcast,140,2013-02-04 16:53:00
8:53 AM,36.0,34.0,93,29.94,10.0,SE,3.5,-,N/A,,Overcast,130,2013-02-04 17:53:00
9:53 AM,37.0,35.1,93,29.93,10.0,Calm,Calm,-,N/A,,Mostly Cloudy,0,2013-02-04 18:53:00
10:53 AM,39.9,35.1,83,29.91,10.0,SSE,4.6,-,N/A,,Mostly Cloudy,150,2013-02-04 19:53:00
11:53 AM,41.0,34.0,76,29.88,10.0,SSE,4.6,-,N/A,,Scattered Clouds,160,2013-02-04 20:53:00
12:53 PM,41.0,35.1,79,29.84,10.0,Variable,3.5,-,N/A,,Partly Cloudy,0,2013-02-04 21:53:00
1:53 PM,41.0,32.0,70,29.81,10.0,SSE,3.5,-,N/A,,Clear,160,2013-02-04 22:53:00
2:53 PM,39.9,32.0,73,29.78,10.0,SSW,3.5,-,N/A,,Clear,200,2013-02-04 23:53:00
3:53 PM,39.0,30.0,70,29.74,10.0,SW,4.6,-,N/A,,Clear,230,2013-02-05 00:53:00
4:53 PM,35.1,30.9,85,29.70,10.0,Calm,Calm,-,N/A,,Clear,0,2013-02-05 01:53:00
5:53 PM,35.1,30.9,85,29.67,10.0,Calm,Calm,-,N/A,,Overcast,0,2013-02-05 02:53:00
6:53 PM,37.0,30.9,79,29.62,10.0,Calm,Calm,-,N/A,,Overcast,0,2013-02-05 03:53:00
7:53 PM,37.9,30.9,76,29.60,10.0,Calm,Calm,-,0.00,Rain,Light Rain,0,2013-02-05 04:53:00
8:53 PM,34.0,32.0,92,29.58,2.5,SSW,5.8,-,0.06,Snow,Light Snow,200,2013-02-05 05:53:00
8:54 PM,33.8,32.0,93,29.57,3.0,Variable,3.5,-,0.00,Snow,Light Snow,0,2013-02-05 05:54:00
9:53 PM,34.0,33.1,96,29.55,7.0,Calm,Calm,-,0.10,Rain,Rain,0,2013-02-05 06:53:00
10:10 PM,33.8,32.0,93,29.53,5.0,NW,3.5,-,0.03,Rain,Light Rain,310,2013-02-05 07:10:00
10:53 PM,33.1,32.0,96,29.52,5.0,Calm,Calm,-,0.10,Rain,Rain,0,2013-02-05 07:53:00
11:53 PM,34.0,33.1,96,29.49,9.0,Variable,3.5,-,0.10,Rain,Light Rain,0,2013-02-05 08:53:00